Location: Newark
(27.9675°N, 86.8869°E)
Time: 13:39:18
(UTC+00:00)

Courier 1B Rocket - Pass Details

Date: 24 October 2019
Orbit: 920 x 1202 km, 28.2° (Epoch: 12 November)

Event Time Altitude Azimuth Distance (km) Brightness Sun altitude
Rises 16:44:08 0° 211° (SSW) 3,851 - -66.6°
Reaches altitude 10° 16:47:48 10° 195° (SSW) 2,841 - -67.2°
Maximum altitude 16:52:26 19° 152° (SSE) 2,177 - -67.9°
Drops below altitude 10° 16:56:53 10° 109° (ESE) 2,712 - -68.6°
Sets 17:00:16 0° 92° (E) 3,619 - -69.1°
